Starlink 32550

operational
NORAD ID: 62131 Int'l Des: 2024-222 Owner: SPXS Country: US Constellation: starlink
LEOCIRCULAR

About Starlink 32550

Description loading...

Live Position

Loading 3D Globe...

Upcoming Passes

Altitude History

Altitude vs Time

uPlot chart will show altitude changes over time

Two-Line Element Set

1 62131U 24222T 26035.13018515 .00038353 00000-0 13959-2 0 9996
2 62131 43.0015 325.9533 0002089 266.3943 93.6670 15.27581959 67668
Epoch: Feb 4, 2026 • Age: 27 hours

Current Status

Altitude 484.3 km
Velocity 7.63 km/s
Sub-Earth Point 29.13°N, 128.17°W
Launch Date Nov 27, 2024
Age 1.1 years
Type internet

Technical Details

Classification Payload
Mass 730.00 kg
Dry Mass 700.00 kg
Total Mass 730.00 kg
Length 0.30 m
Diameter 4.10 m
Span 29.00 m
Shape Box + pan
Manufacturer SPXS
Bus Type Starlink V2M
Phase Status In Orbit
Owner/State SPXS/US

Large Constellations

Loading constellations...